| time (UTC) | temp F | wind direction | speed knots | gust knots | rain 1hr in | rain 24hr in | rain mn in | humidity % | barometer mb |
| 20260902230005 | 63 | 308 | 15.6 | 21.7 | 0.00 | 0.17 | 0.15 | 83 | 1019.5 |
| 20260902225506 | 63 | 306 | 13.9 | 22.6 | 0.00 | 0.17 | 0.15 | 83 | 1019.3 |
| 20260902225005 | 63 | 309 | 13.0 | 21.7 | 0.00 | 0.17 | 0.15 | 84 | 1019.3 |
| 20260902224504 | 63 | 309 | 16.5 | 20.9 | 0.00 | 0.17 | 0.15 | 84 | 1019.2 |
| 20260902223506 | 62 | 306 | 10.4 | 18.2 | 0.00 | 0.17 | 0.15 | 86 | 1019.2 |
| 20260902223005 | 62 | 265 | 7.0 | 19.1 | 0.00 | 0.17 | 0.15 | 85 | 1019.4 |
| 20260902222505 | 62 | 306 | 12.2 | 20.0 | 0.00 | 0.17 | 0.15 | 86 | 1019.4 |
| 20260902221006 | 61 | 312 | 15.6 | 20.9 | 0.00 | 0.17 | 0.15 | 87 | 1019.5 |
| 20260902220504 | 61 | 317 | 16.5 | 20.9 | 0.00 | 0.17 | 0.15 | 87 | 1019.5 |
| 20260902215506 | 60 | 306 | 17.4 | 21.7 | 0.00 | 0.17 | 0.15 | 87 | 1019.6 |
| 20260902215005 | 60 | 316 | 18.2 | 21.7 | 0.00 | 0.17 | 0.15 | 87 | 1019.5 |
| 20260902213005 | 59 | 308 | 18.2 | 24.3 | 0.00 | 0.17 | 0.15 | 88 | 1019.5 |
| 20260902210005 | 58 | 311 | 13.9 | 15.6 | 0.00 | 0.17 | 0.15 | 92 | 1019.5 |
| 20260902204004 | 57 | 316 | 10.4 | 13.9 | 0.00 | 0.17 | 0.15 | 95 | 1019.5 |
| 20260902203508 | 56 | 316 | 11.3 | 13.0 | 0.00 | 0.17 | 0.15 | 95 | 1019.4 |
| 20260902202005 | 55 | 320 | 10.4 | 13.9 | 0.00 | 0.17 | 0.15 | 95 | 1019.7 |
| 20260902200505 | 54 | 315 | 11.3 | 14.8 | 0.00 | 0.17 | 0.15 | 95 | 1019.6 |
| 20260902195005 | 53 | 319 | 2.6 | 6.1 | 0.00 | 0.17 | 0.15 | 95 | 1019.3 |
| 20260902194504 | 53 | 323 | 4.3 | 6.1 | 0.00 | 0.17 | 0.15 | 95 | 1019.4 |
| 20260902194006 | 53 | 288 | 2.6 | 7.0 | 0.00 | 0.17 | 0.15 | 95 | 1019.4 |
| 20260902193005 | 53 | 326 | 5.2 | 7.0 | 0.00 | 0.17 | 0.15 | 94 | 1019.3 |
| 20260902192504 | 53 | 324 | 6.1 | 10.4 | 0.00 | 0.17 | 0.15 | 94 | 1019.2 |
| 20260902192004 | 52 | 323 | 8.7 | 11.3 | 0.00 | 0.17 | 0.15 | 94 | 1019.4 |
| 20260902185505 | 52 | 325 | 3.5 | 7.0 | 0.00 | 0.17 | 0.15 | 94 | 1019.3 |
| 20260902185005 | 53 | 317 | 3.5 | 7.0 | 0.00 | 0.17 | 0.15 | 94 | 1019.1 |
| 20260902184505 | 53 | 325 | 4.3 | 6.1 | 0.00 | 0.17 | 0.15 | 94 | 1019.1 |
| 20260902183006 | 53 | 325 | 4.3 | 6.1 | 0.00 | 0.17 | 0.15 | 94 | 1019.1 |
| 20260902182504 | 53 | 270 | 3.5 | 4.3 | 0.00 | 0.17 | 0.15 | 94 | 1019.0 |
| 20260902174004 | 53 | 268 | 4.3 | 6.1 | 0.02 | 0.17 | 0.15 | 95 | 1018.8 |
| 20260902173506 | 53 | 277 | 4.3 | 8.7 | 0.03 | 0.17 | 0.15 | 96 | 1018.8 |
| 20260902172504 | 53 | 283 | 2.6 | 8.7 | 0.03 | 0.17 | 0.15 | 96 | 1018.9 |
| 20260902170006 | 53 | 258 | 8.7 | 13.9 | 0.03 | 0.17 | 0.15 | 96 | 1018.9 |
| 20260902165506 | 53 | 290 | 7.0 | 18.2 | 0.03 | 0.17 | 0.15 | 96 | 1018.9 |
| 20260902164506 | 53 | 311 | 13.9 | 15.6 | 0.03 | 0.15 | 0.13 | 95 | 1018.7 |
| 20260902162506 | 53 | 312 | 7.8 | 8.7 | 0.12 | 0.15 | 0.12 | 94 | 1018.7 |
| 20260902161006 | 53 | 312 | 7.0 | 8.7 | 0.12 | 0.14 | 0.12 | 94 | 1018.6 |
| 20260902160010 | 53 | 312 | 8.7 | 13.0 | 0.12 | 0.14 | 0.12 | 93 | 1019.0 |
| 20260902155506 | 54 | 308 | 8.7 | 12.2 | 0.12 | 0.14 | 0.12 | 93 | 1018.9 |
| 20260902155008 | 54 | 312 | 9.6 | 13.0 | 0.11 | 0.14 | 0.11 | 93 | 1019.1 |
| 20260902154506 | 54 | 305 | 8.7 | 12.2 | 0.10 | 0.12 | 0.10 | 93 | 1018.7 |
| 20260902153506 | 54 | 307 | 11.3 | 15.6 | 0.05 | 0.07 | 0.05 | 92 | 1018.9 |
| 20260902153008 | 54 | 281 | 6.1 | 15.6 | 0.03 | 0.05 | 0.03 | 91 | 1019.0 |
| 20260902152506 | 55 | 302 | 8.7 | 15.6 | 0.00 | 0.03 | 0.00 | 90 | 1019.1 |
| 20260902152007 | 55 | 270 | 7.8 | 15.6 | 0.00 | 0.02 | 0.00 | 90 | 1019.1 |
| 20260902150007 | 55 | 288 | 6.1 | 12.2 | 0.00 | 0.02 | 0.00 | 89 | 1019.2 |
| 20260902145506 | 54 | 278 | 5.2 | 10.4 | 0.00 | 0.02 | 0.00 | 89 | 1019.2 |
| 20260902144007 | 54 | 305 | 7.0 | 10.4 | 0.00 | 0.02 | 0.00 | 89 | 1019.5 |
| 20260902143507 | 54 | 235 | 8.7 | 13.9 | 0.00 | 0.02 | 0.00 | 89 | 1019.5 |
| 20260902143006 | 54 | 273 | 6.1 | 11.3 | 0.00 | 0.02 | 0.00 | 90 | 1019.3 |
| 20260902142006 | 54 | 295 | 5.2 | 11.3 | 0.00 | 0.02 | 0.00 | 90 | 1019.4 |
| 20260902140505 | 54 | 275 | 5.2 | 13.0 | 0.00 | 0.02 | 0.00 | 90 | 1019.3 |
| 20260902135506 | 54 | 280 | 6.1 | 13.9 | 0.00 | 0.02 | 0.00 | 91 | 1019.3 |
| 20260902135008 | 54 | 268 | 7.8 | 13.9 | 0.00 | 0.02 | 0.00 | 92 | 1019.3 |
| 20260902134506 | 54 | 276 | 6.1 | 12.2 | 0.00 | 0.02 | 0.00 | 92 | 1019.4 |
| 20260902134007 | 54 | 312 | 7.0 | 13.9 | 0.00 | 0.02 | 0.00 | 92 | 1019.3 |
| 20260902133008 | 54 | 267 | 5.2 | 12.2 | 0.00 | 0.02 | 0.00 | 92 | 1019.2 |
| 20260902132506 | 54 | 307 | 7.8 | 13.9 | 0.00 | 0.02 | 0.00 | 92 | 1019.4 |
| 20260902132006 | 54 | 278 | 6.1 | 13.9 | 0.00 | 0.02 | 0.00 | 92 | 1019.3 |
| 20260902131508 | 54 | 259 | 7.8 | 13.0 | 0.00 | 0.02 | 0.00 | 93 | 1019.2 |
| 20260902131006 | 54 | 268 | 7.0 | 13.9 | 0.00 | 0.02 | 0.00 | 93 | 1019.4 |
| 20260902130505 | 54 | 258 | 5.2 | 13.9 | 0.00 | 0.02 | 0.00 | 93 | 1019.4 |
| 20260902124506 | 54 | 286 | 5.2 | 12.2 | 0.00 | 0.02 | 0.00 | 93 | 1019.1 |
| 20260902124006 | 55 | 299 | 7.0 | 15.6 | 0.00 | 0.02 | 0.00 | 94 | 1018.9 |
| 20260902123008 | 55 | 310 | 14.8 | 19.1 | 0.00 | 0.02 | 0.00 | 94 | 1018.8 |
| 20260902122508 | 55 | 293 | 6.1 | 12.2 | 0.00 | 0.02 | 0.00 | 94 | 1018.9 |
| 20260902121508 | 54 | 308 | 6.1 | 11.3 | 0.00 | 0.02 | 0.00 | 94 | 1019.2 |
| 20260902114506 | 54 | 291 | 7.0 | 13.0 | 0.00 | 0.02 | 0.02 | 94 | 1019.1 |
| 20260902114008 | 54 | 306 | 7.8 | 13.0 | 0.00 | 0.02 | 0.02 | 94 | 1019.0 |
| 20260902113006 | 54 | 307 | 10.4 | 15.6 | 0.00 | 0.02 | 0.02 | 94 | 1018.9 |
| 20260902112006 | 54 | 313 | 9.6 | 13.0 | 0.00 | 0.02 | 0.02 | 94 | 1019.0 |
| 20260902111505 | 54 | 307 | 7.8 | 11.3 | 0.00 | 0.02 | 0.02 | 94 | 1019.0 |
| 20260902105006 | 53 | 319 | 4.3 | 7.0 | 0.00 | 0.02 | 0.02 | 94 | 1019.1 |
| 20260902103508 | 53 | 320 | 7.8 | 11.3 | 0.00 | 0.02 | 0.02 | 94 | 1019.0 |
| 20260902102007 | 53 | 283 | 5.2 | 10.4 | 0.00 | 0.02 | 0.02 | 94 | 1019.0 |
| 20260902101007 | 54 | 309 | 7.8 | 12.2 | 0.00 | 0.02 | 0.02 | 94 | 1019.1 |
| 20260902100006 | 54 | 304 | 6.1 | 17.4 | 0.01 | 0.02 | 0.02 | 94 | 1019.2 |
| 20260902095506 | 54 | 315 | 9.6 | 13.9 | 0.01 | 0.02 | 0.02 | 94 | 1019.4 |
| 20260902094006 | 53 | 303 | 5.2 | 10.4 | 0.01 | 0.02 | 0.02 | 94 | 1019.1 |
| 20260902093008 | 53 | 314 | 5.2 | 11.3 | 0.01 | 0.02 | 0.02 | 93 | 1019.1 |
| 20260902092506 | 53 | 289 | 5.2 | 12.2 | 0.02 | 0.02 | 0.02 | 93 | 1019.1 |
| 20260902092006 | 53 | 305 | 6.1 | 13.0 | 0.02 | 0.02 | 0.02 | 93 | 1019.0 |
| 20260902091006 | 53 | 256 | 7.8 | 11.3 | 0.01 | 0.02 | 0.02 | 93 | 1019.1 |
| 20260902085007 | 54 | 264 | 7.8 | 15.6 | 0.00 | 0.01 | 0.01 | 93 | 1019.0 |
| 20260902084507 | 54 | 270 | 7.8 | 14.8 | 0.00 | 0.01 | 0.01 | 93 | 1018.9 |
| 20260902082507 | 54 | 240 | 10.4 | 18.2 | 0.00 | 0.00 | 0.00 | 93 | 1019.1 |
| 20260902082006 | 54 | 246 | 7.0 | 13.9 | 0.00 | 0.00 | 0.00 | 93 | 1019.2 |
| 20260902081505 | 54 | 256 | 6.1 | 11.3 | 0.00 | 0.00 | 0.00 | 93 | 1019.0 |
| 20260902081007 | 54 | 259 | 7.8 | 13.9 | 0.00 | 0.00 | 0.00 | 92 | 1019.0 |
| 20260902080006 | 54 | 247 | 7.8 | 13.0 | 0.00 | 0.00 | 0.00 | 92 | 1019.1 |
| 20260902075006 | 54 | 252 | 7.0 | 12.2 | 0.00 | 0.00 | 0.00 | 91 | 1019.1 |
| 20260902074008 | 54 | 273 | 6.1 | 13.0 | 0.00 | 0.00 | 0.00 | 90 | 1019.1 |
| 20260902073506 | 54 | 298 | 5.2 | 13.0 | 0.00 | 0.00 | 0.00 | 89 | 1018.9 |
| 20260902071506 | 55 | 253 | 7.8 | 13.0 | 0.00 | 0.00 | 0.00 | 89 | 1019.1 |
| 20260902070007 | 55 | 235 | 14.8 | 20.9 | 0.00 | 0.00 | 0.00 | 89 | 1019.1 |
| 20260902064506 | 55 | 270 | 7.8 | 14.8 | 0.00 | 0.00 | 0.00 | 90 | 1018.8 |
| 20260902063506 | 55 | 265 | 7.8 | 18.2 | 0.00 | 0.00 | 0.00 | 90 | 1018.8 |
| 20260902062507 | 55 | 254 | 8.7 | 18.2 | 0.00 | 0.00 | 0.00 | 90 | 1018.9 |
| 20260902062006 | 55 | 284 | 9.6 | 21.7 | 0.00 | 0.00 | 0.00 | 91 | 1018.3 |
| 20260902055006 | 55 | 259 | 10.4 | 19.1 | 0.00 | 0.00 | 0.00 | 92 | 1018.7 |
| 20260902053507 | 55 | 277 | 8.7 | 18.2 | 0.00 | 0.00 | 0.00 | 92 | 1018.6 |
| 20260902052007 | 56 | 294 | 13.9 | 24.3 | 0.00 | 0.00 | 0.00 | 91 | 1018.5 |
| 20260902051005 | 56 | 256 | 9.6 | 17.4 | 0.00 | 0.00 | 0.00 | 91 | 1018.7 |
| 20260902050507 | 56 | 293 | 7.8 | 18.2 | 0.00 | 0.00 | 0.00 | 91 | 1018.4 |
| 20260902050008 | 56 | 303 | 8.7 | 18.2 | 0.00 | 0.00 | 0.00 | 90 | 1018.6 |
| 20260902045505 | 56 | 276 | 8.7 | 20.0 | 0.00 | 0.00 | 0.00 | 89 | 1018.7 |
| 20260902045006 | 56 | 259 | 8.7 | 20.0 | 0.00 | 0.00 | 0.00 | 89 | 1018.5 |
| 20260902044507 | 57 | 255 | 12.2 | 26.1 | 0.00 | 0.00 | 0.00 | 88 | 1018.7 |
| 20260902044005 | 57 | 279 | 13.9 | 24.3 | 0.00 | 0.00 | 0.00 | 87 | 1018.5 |
| 20260902042006 | 58 | 252 | 10.4 | 14.8 | 0.00 | 0.00 | 0.00 | 82 | 1018.7 |
| 20260902041005 | 59 | 254 | 10.4 | 15.6 | 0.00 | 0.00 | 0.00 | 82 | 1018.6 |
| 20260902040507 | 59 | 257 | 10.4 | 18.2 | 0.00 | 0.00 | 0.00 | 81 | 1018.6 |
| 20260902035505 | 59 | 257 | 7.8 | 17.4 | 0.00 | 0.00 | 0.00 | 82 | 1018.6 |
| 20260902033507 | 59 | 292 | 12.2 | 22.6 | 0.00 | 0.00 | 0.00 | 82 | 1018.8 |
| 20260902032505 | 60 | 260 | 11.3 | 19.1 | 0.00 | 0.00 | 0.00 | 80 | 1018.7 |
| 20260902030506 | 61 | 288 | 6.1 | 17.4 | 0.00 | 0.00 | 0.00 | 77 | 1018.6 |
| 20260902030005 | 61 | 257 | 11.3 | 18.2 | 0.00 | 0.00 | 0.00 | 76 | 1018.7 |
| 20260902025505 | 61 | 257 | 10.4 | 17.4 | 0.00 | 0.00 | 0.00 | 76 | 1018.6 |
| 20260902024505 | 62 | 278 | 8.7 | 21.7 | 0.00 | 0.00 | 0.00 | 76 | 1019.0 |
| 20260902024005 | 61 | 251 | 10.4 | 18.2 | 0.00 | 0.00 | 0.00 | 77 | 1018.9 |
| 20260902021005 | 61 | 265 | 12.2 | 20.9 | 0.00 | 0.00 | 0.00 | 77 | 1019.2 |
| 20260902015007 | 64 | 264 | 11.3 | 19.1 | 0.00 | 0.00 | 0.00 | 74 | 1019.0 |
| 20260902014005 | 64 | 262 | 10.4 | 20.0 | 0.00 | 0.00 | 0.00 | 78 | 1019.3 |
| 20260902013505 | 63 | 279 | 8.7 | 18.2 | 0.00 | 0.00 | 0.00 | 77 | 1019.3 |
| 20260902013008 | 64 | 255 | 10.4 | 20.0 | 0.00 | 0.00 | 0.00 | 75 | 1019.3 |
| 20260902012505 | 64 | 289 | 9.6 | 21.7 | 0.00 | 0.00 | 0.00 | 75 | 1019.4 |
| 20260902011506 | 63 | 269 | 10.4 | 21.7 | 0.00 | 0.00 | 0.00 | 75 | 1019.6 |
| 20260902011004 | 63 | 263 | 12.2 | 20.9 | 0.00 | 0.00 | 0.00 | 77 | 1019.7 |
| 20260902010505 | 63 | 246 | 10.4 | 20.9 | 0.00 | 0.00 | 0.00 | 78 | 1019.5 |
| 20260902010006 | 63 | 301 | 11.3 | 20.9 | 0.00 | 0.00 | 0.00 | 78 | 1019.7 |
| 20260902004004 | 62 | 272 | 10.4 | 20.9 | 0.00 | 0.00 | 0.00 | 79 | 1019.8 |
| 20260902003507 | 61 | 268 | 8.7 | 20.0 | 0.00 | 0.00 | 0.00 | 81 | 1019.9 |
| 20260902003005 | 60 | 282 | 11.3 | 21.7 | 0.00 | 0.00 | 0.00 | 80 | 1019.8 |
| 20260902002505 | 60 | 271 | 11.3 | 19.1 | 0.00 | 0.00 | 0.00 | 77 | 1020.2 |
| 20260902002006 | 62 | 258 | 10.4 | 24.3 | 0.00 | 0.00 | 0.00 | 75 | 1020.3 |
| 20260902001505 | 63 | 296 | 13.9 | 22.6 | 0.00 | 0.00 | 0.00 | 77 | 1020.1 |
| 20260902000506 | 62 | 266 | 10.4 | 20.9 | 0.00 | 0.00 | 0.00 | 78 | 1020.1 |
| 20260902000005 | 62 | 295 | 13.0 | 20.9 | 0.00 | 0.00 | 0.00 | 78 | 1020.2 |
| 20260901235505 | 62 | 262 | 12.2 | 21.7 | 0.00 | 0.00 | 0.00 | 77 | 1020.1 |
| 20260901235007 | 62 | 258 | 11.3 | 20.0 | 0.00 | 0.00 | 0.00 | 77 | 1020.3 |
| 20260901231005 | 61 | 251 | 8.7 | 18.2 | 0.00 | 0.00 | 0.00 | 78 | 1020.3 |